Overview Statistics Trail Chart Weather Telemetry Raw packets
 

This is the latest recevied weather packets stored in our database for station/object EA1IDU-12. If no packets are shown the sender has not sent any weather packets the latest 10 day(s).

<< 14 15 16 17 18 19 20 >>
Time Temp. Humidity Pressure Rain* Wind** Luminosity Snow
1788271806 28.33° C 34% 1028.7 hPa - - - -
1788270906 28.33° C 33% 1028.8 hPa - - - -
1788270006 30° C 32% 1028.8 hPa - - - -
1788269105 30° C 33% 1028.9 hPa - - - -
1788268205 29.44° C 33% 1029 hPa - - - -
1788267305 28.89° C 35% 1029.1 hPa - - - -
1788266405 28.33° C 37% 1029.2 hPa - - - -
1788265505 27.78° C 38% 1029.3 hPa - - - -
1788264605 26.67° C 41% 1029.4 hPa - - - -
1788263704 26.67° C 42% 1029.5 hPa - - - -
1788262804 26.67° C 44% 1029.6 hPa - - - -
1788261904 25.56° C 48% 1029.7 hPa - - - -
1788261004 25° C 50% 1029.8 hPa - - - -
1788260104 23.89° C 53% 1029.9 hPa - - - -
1788259204 23.33° C 55% 1029.9 hPa - - - -
1788258303 22.78° C 58% 1029.9 hPa - - - -
1788257403 21.67° C 63% 1030.2 hPa - - - -
1788256503 21.11° C 64% 1030.1 hPa - - - -
1788255603 20° C 67% 1030.1 hPa - - - -
1788254703 19.44° C 69% 1030.2 hPa - - - -
1788253803 18.33° C 71% 1030.2 hPa - - - -
1788252902 17.22° C 71% 1030.2 hPa - - - -
1788252002 16.67° C 73% 1030.2 hPa - - - -
1788251102 16.11° C 75% 1030.1 hPa - - - -
1788250202 15.56° C 76% 1030 hPa - - - -

* Rain since midnight (hover to see other rain measurements)
** Current wind speed in m/s (hover to see current wind gust speed)